| time (UTC) | temp F | wind direction | speed MPH | gust MPH | rain 1hr in | rain 24hr in | rain mn in | humidity % | barometer mb |
| 20260510133005 | 51 | 15 | 6.0 | 13.0 | 0.01 | 0.16 | 0.04 | 91 | 1012.0 |
| 20260510131504 | 51 | 348 | 8.0 | 12.0 | 0.01 | 0.16 | 0.04 | 91 | 1011.9 |
| 20260510130002 | 53 | 327 | 8.0 | 14.0 | 0.01 | 0.16 | 0.04 | 88 | 1011.5 |
| 20260510124603 | 54 | 12 | 2.0 | 9.0 | 0.00 | 0.16 | 0.03 | 89 | 1011.3 |
| 20260510123055 | 53 | 184 | 3.0 | 5.0 | 0.00 | 0.16 | 0.03 | 90 | 1011.5 |
| 20260510121551 | 52 | 239 | 1.0 | 5.0 | 0.00 | 0.16 | 0.03 | 92 | 1011.3 |
| 20260510120048 | 52 | 264 | 1.0 | 6.0 | 0.00 | 0.16 | 0.03 | 92 | 1011.1 |
| 20260510114547 | 52 | 268 | 2.0 | 6.0 | 0.00 | 0.24 | 0.03 | 92 | 1011.0 |
| 20260510113039 | 51 | 239 | 3.0 | 7.0 | 0.00 | 0.24 | 0.03 | 93 | 1010.6 |
| 20260510111536 | 50 | 229 | 3.0 | 7.0 | 0.00 | 0.24 | 0.03 | 94 | 1010.5 |
| 20260510110037 | 50 | 225 | 2.0 | 8.0 | 0.00 | 0.24 | 0.03 | 94 | 1010.3 |
| 20260510104529 | 49 | 221 | 2.0 | 7.0 | 0.00 | 0.30 | 0.03 | 94 | 1010.0 |
| 20260510103027 | 49 | 189 | 3.0 | 5.0 | 0.00 | 0.30 | 0.03 | 94 | 1009.7 |
| 20260510101521 | 49 | 221 | 2.0 | 5.0 | 0.00 | 0.30 | 0.03 | 94 | 1009.5 |
| 20260510100031 | 49 | 242 | 2.0 | 4.0 | 0.00 | 0.30 | 0.03 | 94 | 1009.0 |
| 20260510094524 | 49 | 195 | 0.0 | 4.0 | 0.00 | 0.33 | 0.03 | 93 | 1008.8 |
| 20260510093020 | 49 | 234 | 2.0 | 5.0 | 0.00 | 0.33 | 0.03 | 94 | 1008.8 |
| 20260510091520 | 49 | 221 | 2.0 | 8.0 | 0.00 | 0.33 | 0.03 | 94 | 1008.5 |
| 20260510090023 | 48 | 210 | 4.0 | 8.0 | 0.00 | 0.33 | 0.03 | 95 | 1008.3 |
| 20260510084517 | 48 | 195 | 1.0 | 4.0 | 0.00 | 0.34 | 0.03 | 94 | 1008.4 |
| 20260510083022 | 48 | 172 | 2.0 | 4.0 | 0.00 | 0.34 | 0.03 | 94 | 1008.2 |
| 20260510081516 | 48 | 177 | 2.0 | 4.0 | 0.00 | 0.34 | 0.03 | 94 | 1008.4 |
| 20260510080025 | 48 | 234 | 1.0 | 5.0 | 0.00 | 0.34 | 0.03 | 94 | 1008.3 |
| 20260510074514 | 48 | 207 | 2.0 | 5.0 | 0.00 | 0.34 | 0.03 | 94 | 1008.2 |
| 20260510073014 | 48 | 219 | 4.0 | 8.0 | 0.00 | 0.34 | 0.03 | 95 | 1008.2 |
| 20260510071512 | 48 | 220 | 2.0 | 7.0 | 0.00 | 0.34 | 0.03 | 94 | 1008.1 |
| 20260510070014 | 48 | 201 | 3.0 | 6.0 | 0.00 | 0.34 | 0.03 | 94 | 1008.0 |
| 20260510064511 | 48 | 178 | 4.0 | 9.0 | 0.00 | 0.34 | 0.03 | 94 | 1008.1 |
| 20260510063008 | 48 | 206 | 5.0 | 10.0 | 0.00 | 0.34 | 0.03 | 93 | 1008.0 |
| 20260510061506 | 49 | 181 | 3.0 | 8.0 | 0.00 | 0.34 | 0.03 | 93 | 1008.1 |
| 20260510060006 | 49 | 188 | 2.0 | 8.0 | 0.00 | 0.34 | 0.03 | 93 | 1008.1 |
| 20260510054504 | 49 | 196 | 5.0 | 10.0 | 0.00 | 0.38 | 0.03 | 94 | 1008.4 |
| 20260510053116 | 49 | 164 | 4.0 | 9.0 | 0.00 | 0.38 | 0.03 | 94 | 1008.4 |
| 20260510051600 | 48 | 214 | 2.0 | 8.0 | 0.01 | 0.38 | 0.03 | 94 | 1008.8 |
| 20260510050057 | 48 | 186 | 4.0 | 9.0 | 0.03 | 0.38 | 0.03 | 94 | 1008.8 |
| 20260510044558 | 48 | 196 | 3.0 | 8.0 | 0.04 | 0.38 | 0.03 | 94 | 1008.5 |
| 20260510043104 | 48 | 186 | 3.0 | 7.0 | 0.06 | 0.38 | 0.03 | 94 | 1008.9 |
| 20260510041549 | 49 | 196 | 2.0 | 9.0 | 0.07 | 0.37 | 0.02 | 93 | 1009.1 |
| 20260510040055 | 49 | 200 | 4.0 | 9.0 | 0.06 | 0.35 | 0.00 | 92 | 1009.4 |
| 20260510034547 | 49 | 167 | 2.0 | 6.0 | 0.05 | 0.34 | 0.34 | 90 | 1009.1 |
| 20260510033055 | 50 | 263 | 6.0 | 13.0 | 0.03 | 0.32 | 0.32 | 88 | 1009.3 |
| 20260510031547 | 52 | 280 | 9.0 | 21.0 | 0.01 | 0.30 | 0.30 | 85 | 1009.4 |
| 20260510030046 | 52 | 17 | 9.0 | 13.0 | 0.00 | 0.28 | 0.28 | 92 | 1009.0 |
| 20260510024542 | 53 | 234 | 2.0 | 8.0 | 0.00 | 0.28 | 0.28 | 91 | 1008.0 |
| 20260510023041 | 53 | 251 | 5.0 | 9.0 | 0.00 | 0.28 | 0.28 | 91 | 1008.2 |
| 20260510021540 | 53 | 261 | 5.0 | 15.0 | 0.00 | 0.28 | 0.28 | 90 | 1007.2 |
| 20260510020045 | 53 | 193 | 5.0 | 13.0 | 0.00 | 0.28 | 0.28 | 90 | 1006.8 |
| 20260510014544 | 53 | 210 | 6.0 | 13.0 | 0.00 | 0.28 | 0.28 | 91 | 1006.8 |
| 20260510013038 | 52 | 200 | 4.0 | 9.0 | 0.00 | 0.28 | 0.28 | 91 | 1006.7 |
| 20260510011542 | 52 | 195 | 6.0 | 11.0 | 0.00 | 0.28 | 0.28 | 91 | 1006.6 |
| 20260510010038 | 52 | 202 | 3.0 | 11.0 | 0.00 | 0.28 | 0.28 | 91 | 1006.5 |
| 20260510004539 | 52 | 223 | 3.0 | 8.0 | 0.00 | 0.28 | 0.28 | 91 | 1006.6 |
| 20260510003038 | 53 | 212 | 3.0 | 10.0 | 0.00 | 0.28 | 0.28 | 90 | 1006.3 |
| 20260510001536 | 53 | 217 | 3.0 | 8.0 | 0.00 | 0.28 | 0.28 | 89 | 1006.2 |
| 20260510000056 | 54 | 203 | 3.0 | 8.0 | 0.00 | 0.28 | 0.28 | 87 | 1006.1 |
| 20260509234547 | 55 | 157 | 2.0 | 7.0 | 0.00 | 0.28 | 0.28 | 85 | 1006.2 |
| 20260509233034 | 56 | 199 | 4.0 | 11.0 | 0.00 | 0.28 | 0.28 | 83 | 1006.1 |
| 20260509231534 | 56 | 250 | 4.0 | 9.0 | 0.00 | 0.28 | 0.28 | 83 | 1005.9 |
| 20260509230036 | 56 | 189 | 3.0 | 8.0 | 0.00 | 0.28 | 0.28 | 85 | 1005.8 |
| 20260509224529 | 56 | 214 | 4.0 | 14.0 | 0.00 | 0.28 | 0.28 | 85 | 1005.7 |
| 20260509223029 | 56 | 171 | 7.0 | 14.0 | 0.00 | 0.28 | 0.28 | 86 | 1005.8 |
| 20260509221528 | 55 | 145 | 3.0 | 10.0 | 0.00 | 0.28 | 0.28 | 88 | 1005.8 |
| 20260509220027 | 55 | 202 | 4.0 | 12.0 | 0.00 | 0.28 | 0.28 | 87 | 1006.0 |
| 20260509214530 | 56 | 213 | 2.0 | 13.0 | 0.00 | 0.28 | 0.28 | 88 | 1006.0 |
| 20260509213021 | 54 | 190 | 6.0 | 11.0 | 0.00 | 0.28 | 0.28 | 90 | 1006.1 |
| 20260509211519 | 54 | 196 | 4.0 | 15.0 | 0.00 | 0.28 | 0.28 | 91 | 1006.0 |
| 20260509210016 | 53 | 168 | 5.0 | 11.0 | 0.00 | 0.28 | 0.28 | 93 | 1006.3 |
| 20260509204520 | 53 | 158 | 5.0 | 13.0 | 0.00 | 0.28 | 0.28 | 92 | 1006.5 |
| 20260509203013 | 53 | 234 | 4.0 | 10.0 | 0.00 | 0.28 | 0.28 | 92 | 1006.8 |
| 20260509201512 | 53 | 205 | 5.0 | 13.0 | 0.00 | 0.28 | 0.28 | 94 | 1006.7 |
| 20260509200007 | 52 | 229 | 5.0 | 11.0 | 0.00 | 0.28 | 0.28 | 94 | 1006.9 |
| 20260509194505 | 52 | 199 | 4.0 | 9.0 | 0.00 | 0.28 | 0.28 | 94 | 1007.0 |
| 20260509193005 | 52 | 186 | 3.0 | 9.0 | 0.00 | 0.28 | 0.28 | 94 | 1007.0 |
| 20260509191507 | 52 | 167 | 3.0 | 10.0 | 0.01 | 0.28 | 0.28 | 94 | 1007.1 |
| 20260509190001 | 52 | 192 | 3.0 | 13.0 | 0.01 | 0.28 | 0.28 | 95 | 1007.3 |
| 20260509184607 | 51 | 181 | 5.0 | 13.0 | 0.02 | 0.28 | 0.28 | 95 | 1007.3 |
| 20260509183058 | 51 | 166 | 3.0 | 9.0 | 0.03 | 0.28 | 0.28 | 94 | 1007.3 |
| 20260509181619 | 51 | 216 | 5.0 | 10.0 | 0.02 | 0.28 | 0.28 | 94 | 1007.4 |
| 20260509180051 | 50 | 205 | 5.0 | 14.0 | 0.02 | 0.28 | 0.28 | 94 | 1007.4 |
| 20260509174550 | 50 | 232 | 3.0 | 10.0 | 0.01 | 0.27 | 0.27 | 93 | 1007.4 |
| 20260509173059 | 50 | 161 | 5.0 | 9.0 | 0.00 | 0.26 | 0.26 | 93 | 1007.4 |
| 20260509171547 | 50 | 174 | 5.0 | 14.0 | 0.00 | 0.26 | 0.26 | 92 | 1007.3 |
| 20260509170047 | 50 | 157 | 3.0 | 11.0 | 0.00 | 0.26 | 0.26 | 92 | 1007.3 |
| 20260509164548 | 50 | 157 | 7.0 | 15.0 | 0.00 | 0.26 | 0.26 | 92 | 1007.3 |
| 20260509163044 | 50 | 139 | 7.0 | 14.0 | 0.00 | 0.26 | 0.26 | 92 | 1007.4 |
| 20260509161543 | 50 | 199 | 5.0 | 11.0 | 0.00 | 0.26 | 0.26 | 92 | 1007.6 |
| 20260509160045 | 50 | 161 | 5.0 | 10.0 | 0.00 | 0.26 | 0.26 | 93 | 1007.7 |
| 20260509154537 | 49 | 187 | 4.0 | 11.0 | 0.00 | 0.26 | 0.26 | 94 | 1007.8 |
| 20260509153043 | 49 | 243 | 5.0 | 11.0 | 0.00 | 0.26 | 0.26 | 93 | 1008.0 |
| 20260509151536 | 49 | 180 | 2.0 | 9.0 | 0.00 | 0.26 | 0.26 | 93 | 1008.1 |
| 20260509150039 | 49 | 188 | 6.0 | 12.0 | 0.01 | 0.26 | 0.26 | 93 | 1007.9 |
| 20260509144548 | 49 | 115 | 5.0 | 17.0 | 0.02 | 0.26 | 0.26 | 93 | 1007.9 |
| 20260509143030 | 49 | 151 | 6.0 | 14.0 | 0.02 | 0.26 | 0.26 | 93 | 1008.2 |
| 20260509141531 | 49 | 214 | 4.0 | 15.0 | 0.02 | 0.26 | 0.26 | 94 | 1008.3 |
| 20260509140025 | 48 | 169 | 6.0 | 11.0 | 0.02 | 0.25 | 0.25 | 94 | 1008.5 |
| 20260509134538 | 48 | 190 | 2.0 | 13.0 | 0.01 | 0.25 | 0.24 | 94 | 1008.6 |